Location: Freistadt
(48.5112°N, 14.5013°E)
Time: 23:34:25
(UTC+02:00)

Cosmos 2228 Rocket - Visible Passes

Search period start: 27 May 2024 00:00
Search period end: 06 June 2024 00:00
Orbit: 616 x 648 km, 82.5° (Epoch: 26 May)

Date Brightness Start Highest point End Pass type
(mag) Time Alt. Az. Time Alt. Az. Time Alt. Az.
27 May 4.5 00:15:34 23° ESE 00:16:35 25° E 00:20:17 10° NNE visible
27 May 4.1 01:52:59 28° WSW 01:54:33 36° WNW 01:58:46 10° N visible
28 May 3.6 00:36:49 39° SE 00:37:52 47° E 00:42:12 10° NNE visible
28 May 5.0 02:14:13 15° WSW 02:16:18 21° WNW 02:19:43 10° NNW visible
28 May 5.4 23:20:48 10° E 23:21:55 11° E 23:23:02 10° ENE visible
29 May 3.0 00:58:02 48° S 00:59:17 88° WNW 01:03:50 10° N visible
29 May 5.5 02:36:32 10° W 02:38:11 12° WNW 02:39:51 10° NW visible
29 May 4.8 23:41:50 18° ESE 23:43:01 20° E 23:46:21 10° NE visible
30 May 3.8 01:19:15 32° SW 01:20:49 46° WNW 01:25:13 10° N visible
31 May 3.9 00:03:02 31° SE 00:04:15 37° E 00:08:26 10° NNE visible
31 May 4.7 01:40:26 18° WSW 01:42:30 25° WNW 01:46:18 10° NNW visible
01 Jun 3.1 00:24:12 43° S 00:25:37 73° E 00:30:09 10° NNE visible
01 Jun 5.5 02:01:48 10° W 02:04:21 15° WNW 02:06:54 10° NNW visible
01 Jun 5.0 23:07:58 14° ESE 23:09:28 16° E 23:12:17 10° NE visible
02 Jun 3.5 00:45:22 34° SW 00:47:06 59° WNW 00:51:37 10° N visible
02 Jun 4.2 23:29:07 24° ESE 23:30:39 30° E 23:34:36 10° NNE visible
03 Jun 4.5 01:06:31 21° WSW 01:08:45 31° WNW 01:12:50 10° N visible
03 Jun 3.3 23:50:15 34° SSE 23:51:58 57° E 23:56:26 10° NNE visible
04 Jun 5.3 01:27:39 11° WSW 01:30:31 18° WNW 01:33:40 10° NNW visible
04 Jun 5.2 22:33:57 10° ESE 22:35:55 13° E 22:38:00 10° NE visible
05 Jun 3.2 00:11:22 32° SSW 00:13:24 75° W 00:17:59 10° N visible
05 Jun 5.8 01:51:53 10° WNW 01:52:26 10° WNW 01:52:59 10° NW visible
05 Jun 4.5 22:55:03 18° ESE 22:57:03 24° E 23:00:42 10° NE visible
